Weather History for Alexandria, MN

Change the Weather History Date:

Wednesday, October 10, 2012

  Actual Average Record
Temperature  
Mean Temperature 38 °F -  
Max Temperature 48 °F 56 °F 82 °F (1955)
Min Temperature 27 °F 37 °F 24 °F (1985)
Degree Days  
Heating Degree Days 28    
Moisture  
Dew Point 25 °F    
Average Humidity 61    
Maximum Humidity 89    
Minimum Humidity 37    
Precipitation  
Precipitation 0.00 in - - ()
Sea Level Pressure  
Sea Level Pressure 30.02 in    
Wind  
Wind Speed 9 mph (West)    
Max Wind Speed 14 mph    
Max Gust Speed 23 mph    
Visibility 10 miles    
Events      
Averages and records for this station are not official NWS values.
T = Trace of Precipitation, MM = Missing Value Source: NWS Daily Summary

Daily Weather History Graph

Daily Weather History Graph

Search for Another Location

Airport:

Trip Planner

Search our weather history database for the weather conditions in past years. The results will help you decide how hot, cold, wet, or windy it might be!

Date:

Astronomy

Oct. 10, 2012 Rise Set
Actual Time 7:32 AM CDT 6:43 PM CDT
Civil Twilight 7:02 AM CDT 7:13 PM CDT
Nautical Twilight 6:27 AM CDT 7:48 PM CDT
Astronomical Twilight 5:53 AM CDT 8:22 PM CDT
Moon 1:53 AM CDT (10/10) 4:00 PM CDT (10/10)
Length of Visible Light 12h 11m
Length of Day
11h 11m
Waning Crescent, 27% of the Moon is Illuminated
Oct 10
Waning Crescent
Oct 15
New
Oct 21
First Quarter
Oct 29
Full
Nov 6
Last Quarter

Hourly Weather History & Observations

Time (CDT) Temp. Windchill Dew Point Humidity Pressure Visibility Wind Dir Wind Speed Gust Speed Precip Events Conditions
12:53 AM 33.1 °F 25.5 °F 24.1 °F 70% 30.05 in 10.0 mi WNW 9.2 mph - N/A   Clear
1:53 AM 33.1 °F 24.4 °F 25.0 °F 72% 30.06 in 10.0 mi WNW 11.5 mph - N/A   Clear
2:53 AM 30.9 °F 22.2 °F 25.0 °F 79% 30.07 in 10.0 mi WNW 10.4 mph - N/A   Scattered Clouds
3:53 AM 30.0 °F 21.7 °F 25.0 °F 82% 30.06 in 10.0 mi WNW 9.2 mph - N/A   Clear
4:53 AM 28.0 °F 20.0 °F 25.0 °F 88% 30.08 in 10.0 mi WNW 8.1 mph - N/A   Clear
5:53 AM 27.0 °F 21.6 °F 24.1 °F 89% 30.09 in 10.0 mi West 4.6 mph - N/A   Clear
6:53 AM 28.0 °F 20.0 °F 25.0 °F 88% 30.10 in 10.0 mi West 8.1 mph - N/A   Clear
7:53 AM 27.0 °F 21.6 °F 24.1 °F 89% 30.10 in 10.0 mi West 4.6 mph - N/A   Clear
8:53 AM 32.0 °F 26.4 °F 28.9 °F 88% 30.09 in 10.0 mi SW 5.8 mph - N/A   Clear
9:53 AM 37.9 °F 30.9 °F 30.9 °F 76% 30.09 in 10.0 mi West 10.4 mph - N/A   Clear
10:53 AM 41.0 °F 34.3 °F 30.0 °F 65% 30.10 in 10.0 mi West 11.5 mph - N/A   Clear
11:53 AM 44.1 °F 38.6 °F 30.0 °F 58% 30.09 in 10.0 mi SW 10.4 mph - N/A   Clear
12:53 PM 46.0 °F 41.4 °F 25.0 °F 44% 30.08 in 10.0 mi West 9.2 mph - N/A   Mostly Cloudy
1:53 PM 48.0 °F - 24.1 °F 39% 30.06 in 10.0 mi West 13.8 mph 23.0 mph N/A   Overcast
2:53 PM 46.9 °F - 21.9 °F 37% 30.04 in 10.0 mi West 13.8 mph - N/A   Overcast
3:53 PM 46.9 °F - 23.0 °F 39% 30.02 in 10.0 mi SW 8.1 mph - N/A   Overcast
4:53 PM 46.9 °F - 23.0 °F 39% 29.99 in 10.0 mi SW 4.6 mph - N/A   Overcast
5:53 PM 48.0 °F - 23.0 °F 37% 29.95 in 10.0 mi Calm Calm - N/A   Overcast
6:53 PM 46.0 °F 42.5 °F 24.1 °F 42% 29.93 in 10.0 mi SE 6.9 mph - N/A   Overcast
7:53 PM 46.0 °F 42.5 °F 25.0 °F 44% 29.91 in 10.0 mi East 6.9 mph - N/A   Overcast
8:53 PM 45.0 °F 39.7 °F 24.1 °F 44% 29.88 in 10.0 mi ESE 10.4 mph - N/A   Overcast
9:53 PM 45.0 °F 40.1 °F 24.1 °F 44% 29.86 in 10.0 mi East 9.2 mph - N/A   Overcast
10:53 PM 45.0 °F 41.2 °F 26.1 °F 48% 29.88 in 10.0 mi NE 6.9 mph - N/A   Overcast
11:53 PM 43.0 °F 37.2 °F 27.0 °F 53% 29.86 in 10.0 mi ENE 10.4 mph - N/A   Overcast